{"data":{"norad_id":63791,"epoch":"2026-05-23T22:01:57.575136Z","epoch_age_seconds":168674,"freshness":"FRESH","line1":"1 63791U 25091S   26143.91802749  .00005110  00000+0  19515-3 0  9999","line2":"2 63791  43.0006 348.0049 0000868 277.9410  82.1343 15.27571796 60514","mean_motion":15.27571796,"eccentricity":8.68e-5,"inclination_deg":43.0006,"raan_deg":348.0049,"arg_perigee_deg":277.941,"mean_anomaly_deg":82.1343,"bstar":0.00019515,"rev_number":6051,"period_min":94.267254984066,"perigee_km":482.47810879152,"apogee_km":483.66921496242,"semimajor_km":6861.210661877,"source":"CELESTRAK","updated_at":"2026-05-25T13:38:20.136129Z"}}